カタログに戻る

STARLINK-5860

運用中通信VLEO
NORAD 57052·PAYLOAD·🇺🇸 United States

打ち上げ Jun 22, 2023 から Vandenberg Space Force Base

Loading…

次のパス (今後24時間)

TLE

最新Source: CelesTrak SupGP

元期: Sep 14, 2026, 22:04 UTC

1 57052C 23088E   26257.91993056 -.00004422  00000+0 -16014-3 0  2579
2 57052  42.9997 121.7046 0001351 263.8374 186.1262 15.27584211    18

AllMySatでSTARLINK-5860をリアルタイム追跡

Download on the App Store